[keps] orb12103.2l.amsat

Ray Hoad ray.hoad at mypbmail.com
Thu Apr 12 19:30:46 PDT 2012


SB KEPS @ AMSAT  $ORB12103.N
2Line Orbital Elements 12103.AMSAT

HR AMSAT ORBITAL ELEMENTS FOR AMATEUR SATELLITES IN NASA FORMAT
FROM WA5QGD FORT WORTH,TX April 12, 2012
Send SUBSCRIBE KEPS/UNSUBSCRIBE KEPS to majordomo at amsat.org only
BID: ORB12103.N

DECODE 2-LINE ELSETS WITH THE FOLLOWING KEY:
1 AAAAAU 00  0  0 BBBBB.BBBBBBBB  .CCCCCCCC  00000-0  00000-0 0  DDDZ
2 AAAAA EEE.EEEE FFF.FFFF GGGGGGG HHH.HHHH III.IIII JJ.JJJJJJJJKKKKKZ
KEY: A-CATALOGNUM B-EPOCHTIME C-DECAY D-ELSETNUM E-INCLINATION F-RAAN
G-ECCENTRICITY H-ARGPERIGEE I-MNANOM J-MNMOTION K-ORBITNUM Z-CHECKSUM

TO ALL RADIO AMATEURS BT

AO-07
1 07530U 74089B   12103.54519982 -.00000027  00000-0  10000-3 0  3542
2 07530 101.4022 103.2943 0012120 051.2603 308.9548 12.53588723711822
FO-29
1 24278U 96046B   12102.92572228 -.00000007  00000-0  29940-4 0 08288
2 24278 098.5798 212.2642 0350215 200.7475 157.9145 13.52980339772990
SO-33
1 25509U 98061B   12102.74991369  .00000313  00000-0  50412-4 0 02074
2 25509 031.4359 349.6394 0352766 341.9491 016.8880 14.28694664703142
RS-22
1 27939U 03042A   12103.79434673  .00000363  00000-0  77675-4 0  2585
2 27939 097.8175 307.9490 0014498 111.2008 249.0749 14.63963907456312
VO-52
1 28650U 05017B   12102.72491873  .00000942  00000-0  12211-3 0 00751
2 28650 097.6024 136.9166 0025231 259.3417 100.4953 14.82808091375128
HO-68
1 36122U 09072B   12103.62103419 -.00000044  00000-0  00000 0 0  3706
2 36122 100.3672 164.2727 0007147 258.7615 101.2698 13.16294446111760
UO-11
1 14781U 84021B   12102.74800745  .00000587  00000-0  83785-4 0 08452
2 14781 097.9615 162.8318 0007911 247.6340 112.4034 14.80377458510102
AO-16
1 20439U 90005D   12102.85049126  .00000103  00000-0  54179-4 0 04587
2 20439 098.4246 048.1016 0011215 000.8247 359.2950 14.32035976160509
LO-19
1 20442U 90005G   12102.88358069  .00000206  00000-0  91824-4 0 03674
2 20442 098.3900 051.3733 0011890 352.5454 007.5551 14.32255901160699
AO-27
1 22825U 93061C   12102.67913363 -.00000031  00000-0  48108-5 0 00770
2 22825 098.5700 046.5486 0009262 113.1792 247.0367 14.29444813966972
IO-26
1 22826U 93061D   12102.97265436  .00000085  00000-0  49859-4 0 08437
2 22826 098.5641 047.2242 0009745 105.6712 254.5545 14.29717616967144
GO-32
1 25397U 98043D   12102.82284358  .00000104  00000-0  64009-4 0 07509
2 25397 098.3585 084.8186 0002101 103.7047 256.4367 14.23267367714586
NO-44
1 26931U 01043C   12102.79742802  .00000142  00000-0  87409-4 0 00163
2 26931 067.0523 291.4464 0007101 274.0960 085.9300 14.29780724549752
SO-50
1 27607U 02058C   12102.53833834  .00000377  00000-0  78023-4 0 07360
2 27607 064.5571 137.6342 0084838 261.7191 097.4285 14.72301232500157
CO-55
1 27844U 03031E   12102.52310920  .00000247  00000-0  13386-3 0  3496
2 27844 098.7048 111.8702 0010636 056.1401 304.0774 14.20991967455429
CO-57
1 27848U 03031J   12102.51518635  .00000192  00000-0  10909-3 0  3006
2 27848 098.7123 111.1662 0010635 063.1627 297.0615 14.20747365455361
AO-51
1 28375U 04025K   12102.48725628  .00000195  00000-0  71375-4 0  2382
2 28375 098.1403 070.8919 0082615 243.2574 116.0136 14.40924777409168
CP3
1 31129U 07012N   12102.49248640  .00000488  00000-0  12132-3 0 01386
2 31129 097.8825 114.1926 0101087 331.3744 028.1904 14.52982565264297
CO-65
1 32785U 08021C   12103.65756345  .00000490  00000-0  66959-4 0  2797
2 32785 097.8054 166.2459 0013641 277.1696 082.7986 14.82817524214050
PRISM
1 33493U 09002B   12103.64276630  .00002713  00000-0  33540-3 0  6004
2 33493 098.1613 242.6976 0019734 146.9307 213.3136 14.83529228174030
SOHLA-1
1 33496U 09002E   12102.87202754  .00000176  00000-0  37728-4 0 07136
2 33496 098.0976 215.0745 0005667 250.9241 109.1337 14.69915048172503
SO-67
1 35870U 09049F   12103.70220853  .00003251  00000-0  14012-3 0  8596
2 35870 097.2389 141.7539 0003619 063.4078 044.3695 15.23250957142647
TISAT-1
1 36799U 10035E   12103.84212941  .00001487  00000-0  19525-3 0  8760
2 36799 098.0654 179.7007 0015539 029.4056 330.7986 14.81719509 94811
STUDSAT
1 36801U 10035G   12103.87029277  .00004381  00000-0  53639-3 0  3748
2 36801 098.0715 180.1734 0013476 014.9761 345.1831 14.83656875 94835
FO-69
1 37227U 0        12103.47950675  .00000359  00000-0  58780-4 0 01521
2 37227 071.9676 096.9443 0015220 082.7588 277.5320 14.76995897026393
FO-70
1 37380U 0        12103.47406603  .00000400  00000-0  64854-4 0 01591
2 37380 071.9710 097.4324 0015706 079.2594 281.0355 14.76751023026280
ALMASAT-1
1 38078U 12006B   12103.48791226  .00025028  00000-0  70082-3 0  1169
2 38078 069.4896 105.8540 0769364 330.7263 025.2729 14.06774639  8307
XATCOBEO
1 38082U 12006F   12103.39847647  .00055856  00000-0  14092-2 0  1578
2 38082 069.4863 105.5612 0761347 330.5403 025.4767 14.10516678  8294
NOAA-10
1 16969U 86073A   12102.71494475 -.00000024  00000-0  78719-5 0 08827
2 16969 098.5861 132.9326 0013173 070.0552 290.2037 14.27540042330389
NOAA-11
1 19531U 88089A   12102.81627398 -.00000158  00000-0 -59256-4 0 08842
2 19531 098.7324 189.3674 0012021 055.1030 305.1278 14.14960154215124
NOAA-12
1 21263U 91032A   12102.92763647  .00000050  00000-0  40107-4 0 03848
2 21263 098.7336 124.8898 0014639 036.1163 324.1002 14.25487624087117
MET-3/5
1 21655U 91056A   12103.81650399  .00000051  00000-0  10000-3 0  3824
2 21655 082.5611 198.3598 0014646 123.2474 237.0003 13.17038074993292
MET-2/21
1 22782U 93055A   12102.91884953  .00000031  00000-0  14501-4 0 03898
2 22782 082.5448 085.0902 0022118 342.6934 017.3484 13.83678539940006
OKEAN-4
1 23317U 94066A   12102.94177329  .00000731  00000-0  85333-4 0 09233
2 23317 082.5368 093.1287 0020429 206.3287 153.6890 14.83676002944988
NOAA-14
1 23455U 94089A   12102.95153936  .00000055  00000-0  51891-4 0 08724
2 23455 098.8262 187.2790 0009726 143.6236 216.5596 14.13888744891436
NOAA-15
1 25338U 98030A   12102.84690624  .00000242  00000-0  12203-3 0 02213
2 25338 098.6870 090.3951 0009839 304.7745 055.2489 14.25051622723404
RESURS
1 25394U 98043A   12103.92793237  .00000041  00000-0  35234-4 0   601
2 25394 098.3182 095.6144 0002418 072.5200 287.6244 14.24281815715110
FENGYUN1
1 25730U 99025A   12102.91284810  .00001247  00000-0  73903-3 0 05873
2 25730 098.8441 063.0669 0017566 192.0112 168.0623 14.09384770665279
OKEAN-0
1 25860U 99039A   12103.89680973  .00000431  00000-0  72870-4 0  5989
2 25860 097.9298 067.9048 0001884 082.5250 277.6173 14.74146973684955
NOAA-16
1 26536U 00055A   12102.81703747  .00000147  00000-0  10422-3 0 07043
2 26536 099.1010 143.8925 0009753 270.2296 089.7750 14.12722485595661
NOAA-17
1 27453U 02032A   12102.71261553 -.00000012  00000-0  12649-4 0 06665
2 27453 098.3417 133.0899 0011559 356.7844 003.3262 14.24413759509297
NOAA-18
1 28654U 05018A   12102.79434111  .00000400  00000-0  24498-3 0 01429
2 28654 099.0407 060.3529 0014137 345.1666 014.9097 14.11631881355195
NOAA-19
1 33591U 09005A   12102.78731364  .00000054  00000-0  53898-4 0 03338
2 33591 098.8604 043.4154 0013520 206.1366 153.9120 14.11319003163648
HUBBLE
1 20580U 90037B   12101.50189587  .00001554  00000-0  10217-3 0  9799
2 20580 028.4695 226.4333 0003291 062.4900 297.5817 15.02358714  4548
ISS
1 25544U 98067A   12103.85539831  .00011250  00000-0  15221-3 0  3637
2 25544 051.6428 089.3775 0007675 268.0021 165.7065 15.58228172767833
CO-58
1 28895U 05043F   12103.59143758  .00000596  00000-0  13174-3 0  1477
2 28895 097.9221 332.7172 0017594 002.2090 357.9209 14.60557042344086
FALCON
1 30776U 07006E   12103.88016056  .00003413  00000-0  22561-3 0  3227
2 30776 035.4339 315.5930 0001008 207.8364 152.2291 15.07059744280393
MAST
1 31126U 07012K   12103.57748710  .00000393  00000-0  98204-4 0  4312
2 31126 097.8758 118.5128 0093526 315.9298 043.4465 14.54099467264734
CAPE1
1 31130U 07012P   12103.69577526  .00000491  00000-0  12226-3 0  4425
2 31130 097.8861 115.0482 0100857 328.3373 031.1766 14.52858175264260
COMPASS
1 32787U 08021E   12103.59243903  .00001092  00000-0  13828-3 0  2743
2 32787 097.8050 166.3714 0014194 276.7848 083.1753 14.83728677214082
AAUSAT2
1 32788U 08021F   12102.63189380  .00001432  00000-0  17801-3 0 02659
2 32788 097.8054 165.7774 0013523 279.5836 080.3795 14.84027489213964
DO-64
1 32789U 08021G   12102.74213176  .00002632  00000-0  31193-3 0 02825
2 32789 097.8183 167.6661 0013504 275.0168 084.9500 14.85324815214017
CO-66
1 32791U 08021J   12102.61275961  .00001548  00000-0  19568-3 0 02685
2 32791 097.8053 165.2045 0014597 278.9988 080.9600 14.83196120213875
RS-30
1 32953U 08025A   12103.61154859  .00000010  00000-0  00000 0 0  6923
2 32953 082.5050 335.9256 0019733 089.9099 270.4251 12.43022245176419
TACSAT-3
1 35001U 09028A   12103.44846577  .00304504  41910-4  77950-3 0  9435
2 35001 040.4413 112.7092 0012523 134.7050 225.4807 15.94299744164050
PHARMSAT
1 35002U 09028B   12102.49245219  .00056073  00000-0  41617-3 0 08678
2 35002 040.4676 130.3740 0000802 010.7052 349.3789 15.71932142163785
METEOR-M
1 35865U 09049A   12103.70502722 -.00000017  00000-0  11864-4 0  3167
2 35865 098.6611 159.2372 0001670 235.9209 124.1812 14.21859123133296
RS-38
1 35869U 09049E   12103.87642946  .00000055  00000-0  44319-4 0  3276
2 35869 098.6572 159.4116 0003824 238.0969 121.9828 14.22063482133337
JUGNU
1 37839U 11058B   12102.88603950  .00000620  00000-0  19019-3 0 01296
2 37839 019.9612 039.8958 0018564 212.0137 147.9174 14.12042054025869
SRMSAT
1 37841U 11058D   12102.92118976  .00000264  00000-0  00000-0 0 01283
2 37841 019.9726 043.2536 0012544 184.6347 175.3972 14.10128488025830
RAX-2
1 37853U 11061D   12102.98905141  .00002000  00000-0  16891-3 0 01619
2 37853 101.7192 113.0639 0249456 179.5200 180.6290 14.79337826024615
AUBIESAT
1 37854U 11061E   12102.95988829  .00002574  00000-0  21026-3 0 01602
2 37854 101.7193 113.1866 0251390 178.9676 181.2093 14.79676315024594
HRBE
1 37855U 11061F   12102.96770779  .00002161  00000-0  17873-3 0 01615
2 37855 101.7200 113.1699 0251757 179.0082 181.1675 14.79558043024590
RS-39
1 38051U 11062C   12103.54867499  .00005053  00000-0  22473-3 0  2397
2 38051 051.6344 112.3794 0010599 157.9305 346.1198 15.23146128 11965
E-STAR
1 38079U 12006C   12103.39895173  .00047610  00000-0  11708-2 0  1436
2 38079 069.4932 105.5892 0765869 330.6148 025.3929 14.10092465  8299
GOLIAT
1 38085U 12006J   12103.41967040  .00043814  00000-0  11240-2 0  1397
2 38085 069.4891 105.6217 0765063 330.6244 025.3881 14.09414623  8294
/EX


More information about the Keps mailing list